Weather History for KEPH - September, 2013

Change the Weather History Date:

Tuesday, September 3, 2013

  Actual Average Record
Temperature  
Mean Temperature 78 °F 68 °F  
Max Temperature 89 °F 82 °F 106 °F (1988)
Min Temperature 67 °F 54 °F 47 °F (2008)
Degree Days  
Heating Degree Days 0 1  
Month to date heating degree days 0 3  
Since 1 July heating degree days 0 20  
Cooling Degree Days 13 4  
Month to date cooling degree days 34 13  
Year to date cooling degree days 958 707  
Growing Degree Days 27 (Base 50)    
Moisture  
Dew Point 52 °F    
Average Humidity 43    
Maximum Humidity 63    
Minimum Humidity 22    
Precipitation  
Precipitation 0.00 in 0.00 in 0.11 in (1979)
Month to date precipitation 0.00 0.02  
Year to date precipitation 4.24 4.68  
Sea Level Pressure  
Sea Level Pressure 29.87 in    
Wind  
Wind Speed 6 mph (NNW)    
Max Wind Speed 17 mph    
Max Gust Speed 21 mph    
Visibility 10 miles    
Events      
T = Trace of Precipitation, MM = Missing Value Source: NWS Daily Summary

Daily Weather History Graph

Daily Weather History Graph

Search for Another Location

Airport or City:

Trip Planner

Search our weather history database for the weather conditions in past years. The results will help you decide how hot, cold, wet, or windy it might be!

Date:

Astronomy

Sep. 03, 2013 Rise Set
Actual Time 6:20 AM PDT 7:33 PM PDT
Civil Twilight 5:48 AM PDT 8:04 PM PDT
Nautical Twilight 5:10 AM PDT 8:42 PM PDT
Astronomical Twilight 4:29 AM PDT 9:23 PM PDT
Moon 4:35 AM PDT (9/3) 6:24 PM PDT (9/3)
Length of Visible Light 14h 16m
Length of Day
13h 13m
Waning Crescent, 3% of the Moon is Illuminated
Sep 3
Waning Crescent
Sep 5
New
Sep 12
First Quarter
Sep 19
Full
Sep 26
Last Quarter

Hourly Weather History & Observations

Time (PDT) Temp. Heat Index Dew Point Humidity Pressure Visibility Wind Dir Wind Speed Gust Speed Precip Events Conditions
12:53 AM 70.0 °F - 54.0 °F 57% 29.84 in 10.0 mi North 6.9 mph - N/A   Mostly Cloudy
1:53 AM 68.0 °F - 54.0 °F 61% 29.85 in 10.0 mi North 8.1 mph - N/A   Clear
2:53 AM 68.0 °F - 55.0 °F 63% 29.85 in 10.0 mi NNW 5.8 mph - N/A   Clear
3:53 AM 69.1 °F - 55.0 °F 61% 29.85 in 10.0 mi North 3.5 mph - N/A   Clear
4:53 AM 69.1 °F - 54.0 °F 58% 29.85 in 10.0 mi NNW 5.8 mph - N/A   Partly Cloudy
5:53 AM 66.9 °F - 53.1 °F 61% 29.85 in 10.0 mi North 5.8 mph - N/A   Scattered Clouds
6:53 AM 68.0 °F - 53.1 °F 59% 29.85 in 10.0 mi North 5.8 mph - N/A   Overcast
7:53 AM 70.0 °F - 55.0 °F 59% 29.87 in 10.0 mi NE 5.8 mph - N/A   Clear
8:53 AM 73.0 °F - 55.0 °F 53% 29.88 in 10.0 mi East 3.5 mph - N/A   Clear
9:53 AM 75.9 °F - 55.0 °F 48% 29.88 in 10.0 mi Variable 3.5 mph - N/A   Clear
10:53 AM 78.1 °F - 55.0 °F 45% 29.88 in 10.0 mi Calm Calm - N/A   Clear
11:53 AM 82.9 °F 82.0 °F 55.0 °F 38% 29.87 in 10.0 mi South 10.4 mph - N/A   Clear
12:53 PM 82.9 °F 82.1 °F 55.9 °F 39% 29.88 in 10.0 mi SSW 11.5 mph 18.4 mph N/A   Clear
1:53 PM 84.9 °F 83.7 °F 55.9 °F 37% 29.88 in 10.0 mi South 10.4 mph - N/A   Clear
2:53 PM 86.0 °F 84.2 °F 54.0 °F 33% 29.88 in 10.0 mi Variable 6.9 mph 16.1 mph N/A   Clear
3:53 PM 88.0 °F - 48.9 °F 26% 29.86 in 10.0 mi SW 10.4 mph 18.4 mph N/A   Clear
4:53 PM 88.0 °F - 44.1 °F 22% 29.85 in 10.0 mi South 13.8 mph 17.3 mph N/A   Clear
5:53 PM 86.0 °F - 46.9 °F 26% 29.86 in 10.0 mi South 6.9 mph - N/A   Clear
6:53 PM 82.9 °F - 46.9 °F 28% 29.85 in 10.0 mi SSE 5.8 mph - N/A   Clear
7:53 PM 79.0 °F - 46.9 °F 32% 29.86 in 10.0 mi Calm Calm - N/A   Clear
8:53 PM 75.9 °F - 48.0 °F 37% 29.88 in 10.0 mi Calm Calm - N/A   Clear
9:53 PM 72.0 °F - 46.0 °F 40% 29.88 in 10.0 mi Calm Calm - N/A   Clear
10:53 PM 73.0 °F - 48.0 °F 41% 29.90 in 10.0 mi North 3.5 mph - N/A   Clear
11:53 PM 73.0 °F - 51.1 °F 46% 29.90 in 10.0 mi NW 9.2 mph - N/A   Clear